Location: ???????
(37.7625°N, 23.9957°E)
Time: 14:14:35
(UTC+00:00)

Daily predictions for brighter satellites

Satellite Brightness Start Highest point End
(mag) Time Altitude Azimuth Time Altitude Azimuth Time Altitude Azimuth
CSL-04 Debris 4.5 18:12:56 10° S 18:18:17 73° WSW 18:23:43 10° NNW
Okean O Rocket 4.3 18:21:27 10° SW 18:24:22 17° W 18:27:16 10° NW
SJ-6B 3.3 18:21:45 10° S 18:25:32 61° W 18:29:25 10° NNW
Landsat 7 3.9 18:21:02 10° SSE 18:25:41 62° ENE 18:30:20 10° N
SPOT 1/Viking Rocket 4.3 18:22:42 10° SE 18:27:20 35° ENE 18:31:59 10° N
Okean-O 3.3 18:25:02 10° S 18:29:21 55° W 18:33:43 10° NNW
H-2A R/B 2.1 18:32:01 10° NNE 18:36:28 65° ESE 18:40:55 10° S
Cosmos 1697 Rocket 4.4 18:33:49 10° N 18:37:43 19° NE 18:41:35 10° E
CZ-4B R/B 1.8 18:35:45 10° NNE 18:38:22 31° E 18:41:00 10° SSE
CSL-04 Rocket 4.5 18:33:35 10° S 18:38:58 53° W 18:44:25 10° NNW
Lacrosse 5 rocket 2.2 18:35:33 10° WNW 18:39:12 41° SW 18:43:03 10° SSE
Cosmos 1452 Rocket 3.6 18:34:20 10° S 18:39:26 55° ESE 18:44:33 10° NNE
TSX-5 4.3 18:36:07 10° SSW 18:40:20 88° ESE 18:45:52 10° NNE
Cosmos 1975 Rocket 3.7 18:36:20 10° SSW 18:40:42 60° W 18:45:05 10° N
Cosmos 1709 Rocket 4.0 18:36:48 10° N 18:43:04 86° E 18:49:24 10° S
COSMOS 2406 4.2 18:41:56 10° SSE 18:46:36 26° ESE 18:51:15 10° NE
Lacrosse 5 1.9 18:42:16 10° NW 18:47:24 86° SW 18:51:45 14° SE
Cosmos 2315 Rocket 4.2 18:42:05 10° S 18:48:24 80° W 18:54:43 10° N
NOSS 2-1 (C) 4.3 18:51:22 10° NNW 18:56:23 84° NE 19:02:22 15° SSE
Cosmos 1833 Rocket 2.7 18:52:11 10° S 18:57:39 58° ESE 19:03:10 10° NNE
IRS-1A Rocket 4.4 18:53:18 10° SSE 18:59:12 78° ENE 19:05:05 10° N
Cosmos 1544 Rocket 3.5 18:57:16 10° N 19:01:37 80° E 19:05:25 13° S
PSLV R/B 4.3 18:59:00 10° N 19:03:09 68° WNW 19:07:18 10° SSW
Cosmos 1703 3.5 19:03:50 17° SSE 19:06:32 46° E 19:10:15 10° NNE
NOSS 2-1 (D) 4.4 19:01:48 10° NW 19:06:53 82° WSW 19:12:35 17° SSE
USA 267 4.4 19:05:34 10° ENE 19:10:03 19° ESE 19:11:11 19° SE
Tiangong 2.4 19:08:11 10° W 19:10:58 28° SSW 19:12:03 22° S
RESURS DK-1 2.6 19:17:16 10° NNW 19:21:21 57° ENE 19:23:14 29° SE
GOES 2 Rocket 4.3 19:19:58 10° SW 19:23:56 27° S 19:25:03 25° SSE
ASTRO E2 4.0 19:23:08 10° SW 19:25:35 22° S 19:25:35 22° S
Helios 1A Rocket 3.8 19:26:53 26° ESE 19:28:11 33° ENE 19:31:53 10° N
Cosmos 2154 Rocket 4.3 19:23:16 10° N 19:29:16 49° E 19:32:33 26° SE
SL-8 R/B 4.3 19:24:43 10° NW 19:29:24 50° NNE 19:32:23 21° E
IRAS Rocket 4.4 19:25:55 10° NNE 19:31:30 77° WNW 19:37:00 10° SSW
Delta 2 Rocket 2.7 19:28:15 10° W 19:31:34 60° S 19:32:12 48° SE
Cosmos 1741 Rocket 4.0 19:26:36 10° NNW 19:31:57 76° ENE 19:34:49 28° SSE
Ariane Rocket 3.3 19:29:02 18° S 19:32:52 66° WSW 19:37:57 10° NNW
Cosmos 2082 Rocket 2.5 19:29:58 21° S 19:33:31 46° ESE 19:38:56 10° NE
X-37B 2.1 19:31:27 10° NW 19:33:55 27° NNE 19:35:02 20° NE
Cosmos 1271 Rocket 4.2 19:33:11 10° NNW 19:36:45 33° W 19:39:45 13° SSW
SPOT 3 Rocket 3.5 19:34:36 26° SSE 19:37:38 85° ENE 19:42:52 10° NNW
Cosmos 1328 4.1 19:38:10 39° SE 19:39:04 47° E 19:42:55 10° NNE
Cosmos 2360 4.5 19:33:33 10° NNW 19:39:12 57° ENE 19:41:52 30° SE
Cosmos 1455 3.9 19:38:18 10° NNW 19:41:40 30° W 19:44:33 13° SSW
Cosmos 1892 Rocket 4.1 19:44:01 35° ESE 19:44:37 37° E 19:48:39 10° NNE
CZ-2C R/B 3.7 19:41:24 10° NNE 19:45:51 55° E 19:47:09 39° SSE
ATLAS 2AS CENTAUR R/B 3.7 19:42:03 10° NW 19:48:16 37° WSW 19:52:41 17° S
Cosmos 2228 2.8 19:44:54 10° N 19:49:09 84° E 19:50:30 43° SSE
Resurs 01 Rocket 3.5 19:47:11 10° SSW 19:50:50 25° W 19:54:31 10° NW
Meteor 1-21 Rocket 4.2 19:47:43 18° SSW 19:52:01 82° W 19:57:44 10° N
GEOS 3 Rocket 4.2 19:52:44 28° S 19:55:04 47° WSW 20:00:00 10° NW
Cosmos 2058 Rocket 4.3 19:52:58 10° NNE 19:56:45 27° ENE 19:57:03 26° E
Cosmos 1850 Rocket 4.4 19:53:06 10° NNW 19:58:11 57° WSW 20:00:33 30° S
SPOT 5 2.5 19:58:44 47° SSE 19:59:59 90° WNW 20:04:20 10° NNW
Cosmos 2184 Rocket 4.2 19:54:09 10° NNW 20:00:17 67° W 20:04:09 24° S
Terra 1.9 20:00:49 46° SE 20:02:03 63° ENE 20:06:46 10° N
Spot 2 Rocket 3.5 20:01:19 39° S 20:03:17 84° WSW 20:08:25 10° NNW
Cosmos 1892 3.5 20:09:29 36° ENE 20:09:29 36° ENE 20:12:18 10° NNE
ASTEX 1 3.7 20:14:13 10° NNE 20:19:01 46° E 20:19:15 45° E
ARIANE 5 R/B 2.5 20:21:13 67° ESE 20:21:37 73° ENE 20:26:03 10° N
Cosmos 1697 Rocket 2.9 20:16:34 10° NNW 20:22:06 61° WSW 20:23:48 42° SSW
Cosmos 1606 Rocket 3.7 20:18:02 10° NNW 20:22:20 64° W 20:23:02 54° SW
Cosmos 1980 Rocket 2.3 20:16:42 10° NNW 20:22:23 65° ENE 20:23:43 49° ESE
SL-16 R/B 4.1 20:19:24 10° N 20:23:14 18° NE 20:25:19 15° E
ERS-1 Rocket 3.2 20:22:21 43° SSW 20:23:49 61° W 20:28:48 10° NNW
ATLAS 5 CENTAUR R/B 1.5 20:27:05 57° NNE 20:27:05 57° NNE 20:30:18 10° NNE
Meteor 2-1 Rocket 4.4 20:21:28 10° NNW 20:26:54 63° W 20:28:48 40° SSW
GP-B 3.5 20:23:33 10° NNE 20:27:35 49° ENE 20:27:35 49° ENE
Cosmos 2369 3.6 20:22:30 10° NNW 20:28:16 83° ENE 20:29:34 56° SSE
Cosmos 2341 Rocket 4.0 20:22:48 10° N 20:29:05 68° E 20:30:41 50° SE
Lacrosse 5 4.2 20:28:05 10° W 20:29:38 11° WSW 20:30:58 10° SW
COSMOS 2406 4.4 20:25:13 10° SW 20:30:37 41° WNW 20:36:03 10° N
Cosmos 2344 4.4 20:21:54 10° NNW 20:31:28 83° ENE 20:38:14 34° SE
In-Cosmos 22 Rocket 4.1 20:33:00 59° SE 20:33:47 67° E 20:39:12 10° NNE
Okean 1-7 Rocket 3.8 20:42:25 58° ENE 20:42:25 58° ENE 20:46:20 10° NNE
Cosmos 1726 Rocket 4.2 20:40:29 10° NNW 20:44:37 45° W 20:44:55 45° WSW
Cosmos 1408 3.7 20:45:32 38° NW 20:45:32 38° NW 20:48:12 10° N
Cosmos 968 Rocket 3.4 20:40:46 10° NNW 20:45:59 74° WSW 20:46:32 67° SSW
Cosmos 2181 Rocket 3.8 20:49:51 57° S 20:51:14 88° E 20:57:29 10° N
Meteor 1-27 4.2 20:46:44 10° N 20:52:16 64° E 20:52:42 62° ESE
Cosmos 1869 4.4 20:48:35 10° N 20:51:20 38° NNE 20:51:20 38° NNE
Cosmos 1825 3.3 20:54:14 41° N 20:54:14 41° N 20:56:45 10° N
USA 267 3.1 20:46:59 10° NE 20:53:33 86° SE 20:58:23 20° SW
Cosmos 2322 Rocket 3.7 20:53:41 10° N 20:58:16 24° ENE 20:59:38 22° ENE
Cosmos 1867 3.5 21:00:01 10° NW 21:05:28 72° WSW 21:05:33 72° SW
Cosmos 2278 3.5 21:04:51 10° NNW 21:10:36 86° WSW 21:10:53 81° S
Cosmos 1602 Rocket 4.3 21:11:47 48° NNE 21:11:47 48° NNE 21:14:58 10° N
Nadezhda 3 Rocket 4.1 21:17:31 54° E 21:17:37 54° E 21:23:35 10° NNE
Cosmos 2082 Rocket 4.2 21:13:11 10° WSW 21:17:47 25° WNW 21:22:23 10° N
ALOS 2 4.0 21:23:19 32° NE 21:23:19 32° NE 21:26:29 10° N
Cosmos 2360 Rocket 3.5 21:28:40 10° N 21:33:36 30° ENE 21:34:31 28° ENE
Terra 4.3 21:39:42 12° W 21:40:11 12° W 21:41:54 10° WNW
Meteor 2-20 4.5 21:46:54 66° WSW 21:47:20 69° W 21:53:25 10° N
Cosmos 2058 4.3 21:51:56 36° NNE 21:51:56 36° NNE 21:54:28 10° N
SJ 16-02 2.4 21:46:20 10° NNW 21:49:28 44° N 21:49:28 44° N
Cosmos 2237 4.3 21:47:04 10° NNW 21:52:41 66° ENE 21:52:41 66° ENE
ADEOS Rocket 3.3 21:56:00 66° SSE 21:57:11 83° ENE 22:04:55 10° NNW
Meteor 2-2 Rocket 4.5 21:55:33 10° N 22:01:32 66° ENE 22:01:32 66° ENE
Cosmos 2221 4.2 22:00:45 10° NNE 22:03:27 27° NE 22:03:27 27° NE
Cosmos 1980 Rocket 4.3 22:02:34 10° WNW 22:05:28 15° W 22:05:28 15° W
SL-16 R/B 2.5 22:02:13 10° NNW 22:07:09 60° WNW 22:07:09 60° WNW
Cosmos 2219 Rocket 3.8 22:05:22 10° N 22:10:01 25° ENE 22:11:32 23° E
Cosmos 1934 Rocket 3.9 22:05:33 10° N 22:11:39 72° E 22:11:40 72° E
SL-4 R/B 4.3 22:14:13 20° N 22:14:13 20° N 22:16:12 10° NNE
ERS-2 4.4 22:11:44 10° NNE 22:13:08 22° NNE 22:13:08 22° NNE
CENTAUR R/B 3.4 22:22:30 33° E 22:22:30 33° E 22:27:05 10° NE
Cosmos 1339 Rocket 4.4 22:30:08 79° W 22:30:09 79° W 22:36:20 10° N
Cosmos 44 4.4 22:38:36 37° NW 22:38:36 37° NW 22:42:14 10° NNE
Cosmos 1535 Rocket 4.4 22:32:03 10° N 22:38:28 85° W 22:38:34 84° WSW
Cosmos 2322 Rocket 3.0 22:37:05 10° NW 22:41:25 41° WNW 22:41:25 41° WNW
NOSS 3-2 (C) 4.2 22:58:02 35° E 22:58:02 35° E 23:02:28 10° NE
Cosmos 2333 Rocket 2.2 22:55:01 10° NNW 23:00:27 79° NNW 23:00:27 79° NNW
Cosmos 1605 Rocket 4.0 22:56:55 10° N 23:03:18 72° W 23:03:25 72° WSW
BREEZE-M DEB (TANK) 3.9 22:57:16 10° NW 23:06:01 55° NNE 23:06:22 53° NE
USA 234 3.1 23:07:03 74° S 23:07:37 80° SW 23:14:12 10° NW
Meteor 2-3 Rocket 3.9 23:12:54 60° WNW 23:12:54 60° WNW 23:18:09 10° N
Resurs 1-4 Rocket 3.5 23:08:26 10° NE 23:12:58 28° E 23:13:00 28° E
USA 238 DEB 3.7 23:14:56 56° ESE 23:14:59 56° ESE 23:21:29 10° NE
USA 238 3.7 23:15:05 55° ESE 23:15:08 55° ESE 23:21:37 10° NE
Cosmos 2227 Rocket 3.8 23:15:11 22° ESE 23:15:18 22° E 23:19:30 10° NE
Cosmos 2360 Rocket 3.3 23:12:28 10° NW 23:16:14 32° WNW 23:16:14 32° WNW
Timation 1 Rocket 4.3 23:19:51 69° ESE 23:19:51 69° ESE 23:25:50 10° NNE
Cosmos 1763 Rocket 4.2 23:21:39 45° WNW 23:21:39 45° WNW 23:26:31 10° N
Cosmos 2151 4.2 23:23:01 38° NNW 23:23:01 38° NNW 23:25:56 10° N
CZ-2D R/B 3.1 23:20:11 10° NNE 23:24:56 34° E 23:25:00 34° E
Cosmos 841 Rocket 3.5 23:32:18 76° NNE 23:32:18 76° NNE 23:37:04 10° NNE
Cosmos 1802 Rocket 4.4 23:30:03 10° N 23:36:11 56° E 23:37:49 44° SE
Cosmos 1151 Rocket 4.2 23:32:24 10° N 23:36:21 37° ENE 23:36:21 37° ENE
Cosmos 2285 Rocket 4.2 23:36:02 53° W 23:36:53 57° WNW 23:43:14 10° N
MOZ.5/SAFIR/RUBIN 5/SL-8 3.9 23:40:59 72° NNE 23:40:59 72° NNE 23:45:19 10° N
ADEOS II 3.5 23:36:46 10° NE 23:41:07 26° E 23:41:59 25° ESE
NOSS 0 Rocket 4.3 23:36:52 10° NNW 23:42:57 59° ENE 23:45:21 36° SE
Thor Agena Rocket 3.4 23:38:03 10° NNE 23:43:06 86° NNE 23:43:06 86° NNE
Cosmos 2237 Rocket 3.5 23:38:16 10° N 23:43:27 36° ENE 23:47:04 18° ESE
Cosmos 2297 Rocket 2.3 23:44:07 61° ESE 23:44:21 62° ESE 23:49:55 10° NNE
Cosmos 2219 4.1 23:46:18 34° ESE 23:46:53 35° ESE 23:51:57 10° NE
COSMOS 2428 2.6 23:41:37 10° NNW 23:47:19 76° WSW 23:47:19 76° WSW
ISS -0.7 23:47:44 11° NW 23:48:39 12° NNW 23:50:08 10° N
COSMOS 2455 3.9 23:46:16 10° NNW 23:51:58 42° NE 23:57:19 11° SE
Cosmos 540 Rocket 4.3 23:52:58 38° WNW 23:53:02 38° WNW 23:57:51 10° N
Cosmos 2219 Rocket 2.9 23:48:46 10° NW 23:53:13 40° W 23:53:13 40° W
